Location: Bernay
(48.6766°N, 2.9386°E)
Time: 18:59:09
(UTC+00:00)

ATLAS 3B R/B - Pass Details

Date: 12 January 2026
Orbit: 936 x 1257 km, 63.8° (Epoch: 17 February)

Event Time Altitude Azimuth Distance (km) Brightness Sun altitude
Rises 17:43:42 0° 261° (W) 4,117 7.6 -14.0°
Reaches altitude 10° 17:46:44 10° 270° (W) 3,187 6.4 -14.4°
Maximum altitude 17:53:45 36° 335° (NNW) 1,897 4.1 -15.5°
Enters shadow 18:00:07 13° 37° (NE) 3,018 4.6 -16.6°
